Location: Morisset
(33.1080°S, 151.4871°E)
Time: 09:11:22
(UTC+00:00)

USA 40 PKM - Pass Details

Date: 29 October 2020
Orbit: 531 x 8063 km, 57.0° (Epoch: 27 November)

Event Time Altitude Azimuth Distance (km) Brightness Sun altitude
Rises 18:00:45 0° 221° (SW) 3,644 8.3 -11.8°
Reaches altitude 10° 18:03:46 10° 224° (SW) 2,239 7.2 -11.2°
Maximum altitude 18:08:04 63° 305° (NW) 620 4.3 -10.4°
Drops below altitude 10° 18:11:34 10° 27° (NNE) 1,815 7.0 -9.7°
Sets 18:13:46 0° 31° (NNE) 2,859 8.1 -9.3°
